Weather History for Plainview, TX

Change the Weather History Date:

Friday, June 14, 2013

  Actual Average Record
Temperature  
Mean Temperature 72 °F -  
Max Temperature 83 °F 89 °F 106 °F (1924)
Min Temperature 62 °F 62 °F 47 °F (1942)
Cooling Degree Days 7    
Growing Degree Days 22 (Base 50)    
Moisture  
Dew Point 62 °F    
Average Humidity 67    
Maximum Humidity 88    
Minimum Humidity 36    
Precipitation  
Precipitation 0.00 in - - ()
Sea Level Pressure  
Sea Level Pressure 30.05 in    
Wind  
Wind Speed 9 mph (South)    
Max Wind Speed 24 mph    
Max Gust Speed 30 mph    
Visibility 10 miles    
Events Rain    
Averages and records for this station are not official NWS values.
T = Trace of Precipitation, MM = Missing Value Source: NWS Daily Summary

Daily Weather History Graph

Daily Weather History Graph

Search for Another Location

Airport:

Trip Planner

Search our weather history database for the weather conditions in past years. The results will help you decide how hot, cold, wet, or windy it might be!

Date:

Astronomy

Jun. 14, 2013 Rise Set
Actual Time 6:34 AM CDT 8:59 PM CDT
Civil Twilight 6:05 AM CDT 9:29 PM CDT
Nautical Twilight 5:29 AM CDT 10:05 PM CDT
Astronomical Twilight 4:49 AM CDT 10:44 PM CDT
Moon 11:58 AM CDT (6/14) 12:18 AM CDT (6/14)
Length of Visible Light 15h 23m
Length of Day
14h 25m
Waxing Crescent, 30% of the Moon is Illuminated
Jun 14
Waxing Crescent
Jun 16
First Quarter
Jun 23
Full
Jun 29
Last Quarter
Jul 8
New

Hourly Weather History & Observations

Time (CDT) Temp. Heat Index Dew Point Humidity Pressure Visibility Wind Dir Wind Speed Gust Speed Precip Events Conditions
12:15 AM 75.4 °F - 59.9 °F 58% 30.06 in 7.0 mi SSW 13.8 mph - N/A   Clear
12:35 AM 75.2 °F - 60.3 °F 60% 30.06 in 7.0 mi SSW 10.4 mph - N/A   Clear
12:55 AM 75.2 °F - 61.0 °F 61% 30.07 in 10.0 mi SSW 11.5 mph - N/A   Clear
1:15 AM 75.2 °F - 61.5 °F 62% 30.06 in 10.0 mi SW 8.1 mph - N/A   Clear
1:35 AM 75.2 °F - 62.2 °F 64% 30.06 in 10.0 mi SW 8.1 mph - N/A   Clear
1:55 AM 72.5 °F - 61.2 °F 67% 30.06 in 10.0 mi SW 8.1 mph - N/A   Clear
2:15 AM 72.0 °F - 62.1 °F 71% 30.06 in 10.0 mi SW 5.8 mph - N/A   Clear
2:35 AM 70.0 °F - 61.0 °F 73% 30.06 in 10.0 mi SW 4.6 mph - N/A   Clear
2:55 AM 70.0 °F - 61.7 °F 75% 30.05 in 10.0 mi SW 4.6 mph - N/A   Clear
3:15 AM 70.0 °F - 62.1 °F 76% 30.05 in 10.0 mi Calm Calm - N/A   Clear
3:35 AM 70.0 °F - 62.4 °F 77% 30.05 in 10.0 mi Calm Calm - N/A   Clear
3:55 AM 70.0 °F - 63.0 °F 78% 30.05 in 10.0 mi Calm Calm - N/A   Clear
4:15 AM 70.0 °F - 63.5 °F 80% 30.05 in 10.0 mi Calm Calm - N/A   Clear
4:35 AM 67.5 °F - 61.7 °F 82% 30.04 in 10.0 mi Calm Calm - N/A   Clear
4:55 AM 64.9 °F - 59.0 °F 81% 30.04 in 10.0 mi South 3.5 mph - N/A   Clear
5:15 AM 64.9 °F - 60.1 °F 84% 30.04 in 10.0 mi Calm Calm - N/A   Clear
5:35 AM 64.9 °F - 59.7 °F 83% 30.04 in 10.0 mi SSE 3.5 mph - N/A   Clear
5:55 AM 62.6 °F - 57.7 °F 84% 30.05 in 10.0 mi SSE 3.5 mph - N/A   Clear
6:15 AM 62.6 °F - 58.5 °F 86% 30.06 in 10.0 mi South 3.5 mph - N/A   Clear
6:35 AM 63.5 °F - 59.4 °F 86% 30.06 in 10.0 mi South 3.5 mph - N/A   Clear
6:55 AM 64.9 °F - 60.3 °F 85% 30.05 in 10.0 mi Calm Calm - N/A   Clear
7:15 AM 67.5 °F - 62.6 °F 84% 30.06 in 10.0 mi Calm Calm - N/A   Clear
7:35 AM 70.0 °F - 64.2 °F 82% 30.06 in 10.0 mi Calm Calm - N/A   Clear
7:55 AM 70.0 °F - 63.9 °F 81% 30.07 in 10.0 mi South 3.5 mph - N/A   Clear
8:15 AM 70.0 °F - 63.7 °F 80% 30.08 in 10.0 mi South 4.6 mph - N/A   Clear
8:35 AM 71.2 °F - 64.4 °F 79% 30.08 in 10.0 mi South 4.6 mph - N/A   Clear
8:55 AM 72.5 °F - 65.3 °F 78% 30.08 in 10.0 mi South 4.6 mph - N/A   Clear
9:15 AM 72.9 °F - 65.3 °F 77% 30.09 in 10.0 mi SSW 4.6 mph - N/A   Clear
9:35 AM 75.2 °F - 66.6 °F 74% 30.09 in 10.0 mi South 4.6 mph - N/A   Clear
9:55 AM 75.2 °F - 65.5 °F 72% 30.08 in 10.0 mi South 3.5 mph - N/A   Clear
10:15 AM 75.2 °F - 63.9 °F 68% 30.08 in 10.0 mi SW 5.8 mph - N/A   Clear
10:35 AM 75.2 °F - 62.6 °F 65% 30.07 in 10.0 mi SSE 8.1 mph - N/A   Clear
10:55 AM 76.8 °F - 62.4 °F 61% 30.07 in 10.0 mi South 8.1 mph - N/A   Clear
11:15 AM 77.5 °F - 61.3 °F 57% 30.07 in 10.0 mi SSE 8.1 mph - N/A   Scattered Clouds
11:35 AM 77.4 °F - 62.4 °F 60% 30.08 in 10.0 mi SSE 8.1 mph - N/A   Mostly Cloudy
11:55 AM 77.5 °F - 62.2 °F 59% 30.08 in 10.0 mi SSE 6.9 mph - N/A   Mostly Cloudy
12:15 PM 77.5 °F - 61.3 °F 57% 30.07 in 10.0 mi South 10.4 mph - N/A   Scattered Clouds
12:35 PM 77.7 °F - 60.4 °F 55% 30.07 in 10.0 mi SSE 12.7 mph - N/A   Scattered Clouds
12:55 PM 79.9 °F - 61.7 °F 54% 30.07 in 10.0 mi South 13.8 mph - N/A   Scattered Clouds
1:15 PM 80.1 °F 81.1 °F 61.5 °F 53% 30.07 in 10.0 mi South 16.1 mph 20.7 mph N/A   Scattered Clouds
1:35 PM 80.1 °F 81.2 °F 62.1 °F 54% 30.06 in 10.0 mi SSE 13.8 mph 18.4 mph N/A   Scattered Clouds
1:55 PM 80.1 °F 81.4 °F 62.6 °F 55% 30.06 in 10.0 mi South 13.8 mph 20.7 mph N/A   Mostly Cloudy
2:15 PM 80.1 °F 81.2 °F 61.9 °F 54% 30.05 in 10.0 mi SSE 12.7 mph 19.6 mph N/A   Mostly Cloudy
2:35 PM 80.1 °F 81.0 °F 60.6 °F 51% 30.04 in 10.0 mi SSW 5.8 mph - N/A   Overcast
2:55 PM 81.7 °F 81.9 °F 58.8 °F 46% 30.02 in 10.0 mi South 13.8 mph - N/A   Overcast
3:15 PM 82.4 °F 82.3 °F 58.5 °F 44% 30.02 in 10.0 mi SSE 12.7 mph 19.6 mph N/A   Mostly Cloudy
3:35 PM 82.4 °F 82.0 °F 56.8 °F 42% 30.02 in 10.0 mi South 13.8 mph 21.9 mph N/A   Mostly Cloudy
3:55 PM 82.6 °F - 52.9 °F 36% 30.02 in 10.0 mi SSE 17.3 mph 21.9 mph N/A   Mostly Cloudy
4:15 PM 81.5 °F 80.9 °F 54.5 °F 39% 30.01 in 10.0 mi SSE 20.7 mph 25.3 mph N/A   Mostly Cloudy
4:35 PM 80.2 °F 80.4 °F 55.9 °F 43% 30.01 in 10.0 mi SSE 18.4 mph 24.2 mph N/A   Scattered Clouds
4:55 PM 78.4 °F - 57.0 °F 48% 30.00 in 10.0 mi SSE 21.9 mph 27.6 mph N/A   Clear
5:15 PM 80.1 °F 80.7 °F 58.8 °F 48% 30.00 in 10.0 mi SE 18.4 mph 27.6 mph N/A   Scattered Clouds
5:35 PM 81.3 °F 81.7 °F 59.2 °F 47% 29.99 in 10.0 mi South 17.3 mph 24.2 mph N/A   Scattered Clouds
5:55 PM 80.2 °F 80.8 °F 58.8 °F 48% 29.98 in 10.0 mi South 19.6 mph 25.3 mph N/A   Scattered Clouds
6:15 PM 80.1 °F 81.0 °F 60.6 °F 51% 29.99 in 10.0 mi South 20.7 mph 27.6 mph N/A   Scattered Clouds
6:35 PM 79.5 °F - 60.8 °F 53% 29.99 in 10.0 mi South 18.4 mph 26.5 mph N/A   Mostly Cloudy
6:55 PM 77.5 °F - 57.4 °F 50% 29.99 in 10.0 mi South 18.4 mph 26.5 mph N/A   Mostly Cloudy
7:15 PM 77.4 °F - 60.1 °F 55% 30.00 in 10.0 mi South 17.3 mph 25.3 mph N/A   Overcast
7:35 PM 75.2 °F - 63.5 °F 67% 30.01 in 10.0 mi South 24.2 mph 29.9 mph N/A   Overcast
7:55 PM 72.5 °F - 63.9 °F 74% 30.02 in 10.0 mi SSE 16.1 mph - N/A   Overcast
8:15 PM 72.5 °F - 62.1 °F 70% 30.03 in 10.0 mi South 15.0 mph 20.7 mph N/A   Overcast
8:35 PM 72.1 °F - 61.2 °F 68% 30.03 in 10.0 mi South 15.0 mph - N/A   Overcast
8:55 PM 71.2 °F - 61.0 °F 70% 30.02 in 10.0 mi SSE 13.8 mph - N/A   Overcast
9:15 PM 70.9 °F - 61.3 °F 72% 30.03 in 10.0 mi South 15.0 mph - N/A   Mostly Cloudy
9:35 PM 70.2 °F - 61.5 °F 74% 30.03 in 10.0 mi South 15.0 mph - N/A Rain Light Rain
9:55 PM 70.0 °F - 65.1 °F 85% 30.04 in 10.0 mi SSE 10.4 mph - N/A Rain Rain
10:15 PM 70.0 °F - 65.8 °F 87% 30.05 in 10.0 mi SSE 9.2 mph - N/A Rain Rain
10:35 PM 70.0 °F - 65.8 °F 87% 30.06 in 10.0 mi South 10.4 mph - N/A Rain Light Rain
10:55 PM 70.0 °F - 66.0 °F 87% 30.06 in 10.0 mi SSE 9.2 mph - N/A Rain Light Rain
11:15 PM 70.0 °F - 65.7 °F 86% 30.07 in 10.0 mi South 9.2 mph - N/A   Light Drizzle
11:35 PM 70.0 °F - 66.2 °F 88% 30.07 in 10.0 mi SSE 9.2 mph - N/A   Light Drizzle
11:55 PM 70.0 °F - 66.0 °F 87% 30.06 in 10.0 mi South 10.4 mph - N/A Rain Light Rain